Weather in Staraya Samayevka

Russia / Republic of Mordovia     54°13′12″N   43°40′44″E
temp.,
°C
wind,
m/s
gust,
m/s
humid.,
%
clouds,
%
prec.,
mm/h
press.,
hPa
HPBL,
m
24 january, sun
sun2400:00+1ssw3999100 0.0 1018299
03:00+1ssw41099100 0.0 1018281
06:00+1s4999100 0.0 1018282
09:00+1s4999100 0.0 1019303
12:00+1s49100100 0.0 1020265
15:00+1s4998100 0.1 1020303
18:00+1s41098100 0.1 1021347
21:00+1s51197100 0.3 1021421
25 january, mon
mon2500:00+1s51299100 0.8 1021390
03:00+1s61294100 1.2 1022416
06:00+1s61392100 0.1 1022470
09:00−1s61291100 0.2 1023432
12:00−1sse61289100 0.0 1023574
15:00−1sse51192100 0.0 1022556
18:00−3sse61193100 0.0 1021598
21:00−2sse51192100 0.1 1021725
26 january, tue
tue2600:00−2sse51090100 0.0 1020465
03:00−1sse41094100 0.1 1020431
06:00−1sse51192100 0.0 1019582
09:00−2sse61391100 0.0 1018600
12:000sse71390100 0.0 1018717
15:00−1sse51191100 0.1 1016562
18:00−1s61195100 1.4 1015512
21:00+1s51196100 1.5 1015546
27 january, wed
wed2700:00+1s41193100 0.0 1016540
03:000sse51293100 0.0 1015438
06:00+1sse71495100 0.7 1014478
09:00+1sse71694100 1.3 1013616
12:00+1sse71495100 0.1 1013640
15:00+1s61294100 0.1 1013610
18:000sse61391100 0.0 1013549
21:00−1sse71488100 0.2 1013530
28 january, thu
thu2800:00−2sse71488100 0.0 1012489
03:00−2s61291100 0.0 1011638
06:00−3sse61191100 0.0 1010550
09:00−3sse61391100 0.0 1009590
12:00−2s61191100 0.0 1009577
15:00−3sse61092100 0.1 1008499
18:00−3sse4893100 0.1 1011420
21:00−4sse379598 0.2 1011296